Location: *
(51.3252°S, 173.0361°W)
Time: 12:05:38
(UTC+00:00)

Daily predictions for brighter satellites

Satellite Brightness Start Highest point End
(mag) Time Altitude Azimuth Time Altitude Azimuth Time Altitude Azimuth
Cosmos 2263 Rocket 4.2 15:07:39 24° SE 15:07:39 24° SE 15:11:31 10° E
CZ-4C R/B 3.5 15:35:02 44° SSE 15:35:02 44° SSE 15:39:22 10° SE
USA 229 DEB 4.3 15:35:52 46° NE 15:35:52 46° NE 15:40:16 10° NE
USA 229 4.3 15:35:56 47° NE 15:35:56 47° NE 15:40:23 10° NE
Cosmos 1980 Rocket 4.2 15:32:43 16° NE 15:35:42 24° ENE 15:40:09 10° SE
BREEZE-M R/B 4.5 15:38:52 66° ENE 15:38:52 66° ENE 15:48:49 10° E
Okean O Rocket 4.0 15:35:25 10° ENE 15:37:18 21° ENE 15:37:18 21° ENE
NOSS 3-1 (A) 4.0 15:47:29 50° ENE 15:47:29 50° ENE 15:51:35 10° NE
USA 234 3.2 15:55:48 10° ENE 16:02:23 73° SSE 16:02:51 70° S
Cosmos 1697 Rocket 3.0 16:02:53 63° E 16:02:53 63° E 16:08:13 10° SE
ATLAS 2AS CENTAUR R/B 3.8 16:04:40 27° S 16:04:40 27° S 16:10:07 10° SE
SMAP 4.3 16:01:44 10° NE 16:06:05 39° ESE 16:07:02 35° SE
Cosmos 1092 Rocket 4.4 16:00:19 10° N 16:06:24 59° E 16:12:31 10° SSE
Timation 1 Rocket 4.4 16:08:50 77° SE 16:08:53 77° ESE 16:14:56 10° NE
CZ-4B R/B 3.5 16:05:28 10° NNE 16:11:02 66° ESE 16:12:45 44° S
Cosmos 1953 4.1 16:14:22 30° ENE 16:14:22 30° ENE 16:16:50 10° NE
Lacrosse 5 rocket 3.3 16:16:13 25° SE 16:16:13 25° SE 16:18:03 10° ESE
Cosmos 1937 Rocket 3.8 16:15:37 61° ENE 16:15:37 61° ENE 16:20:00 10° NNE
Cosmos 1656 4.3 16:16:52 46° S 16:16:52 46° S 16:20:59 10° SSE
Radarsat Rocket 4.3 16:09:05 10° NNE 16:16:15 80° ESE 16:20:01 28° SSW
Nadezhda 4 Rocket 3.9 16:19:03 72° SSW 16:19:03 72° SSW 16:24:48 10° S
Cosmos 1025 Rocket 3.8 16:23:13 49° E 16:23:18 49° E 16:27:32 10° SSE
Cosmos 2227 4.3 16:30:35 51° S 16:32:01 74° ESE 16:37:41 10° NE
H-2A R/B 4.2 16:27:55 10° S 16:29:09 18° S 16:29:09 18° S
Cosmos 2360 4.2 16:33:53 45° NNW 16:35:45 81° ENE 16:41:32 10° SSE
ATLAS CENTAUR R/B 3.3 16:35:11 24° S 16:36:14 26° SSE 16:40:20 10° E
Meteor 1-21 4.1 16:35:57 53° NNW 16:37:21 78° WSW 16:43:09 10° S
Cosmos 1726 4.0 16:43:50 24° NNE 16:43:50 24° NNE 16:45:23 10° NNE
Cosmos 1536 Rocket 3.8 16:39:58 10° N 16:44:19 67° E 16:48:44 10° SSE
Cosmos 2369 Rocket 4.4 16:45:23 11° S 16:45:23 11° S 16:47:11 10° S
Cosmos 1674 4.4 16:47:34 10° NNE 16:51:00 34° E 16:54:31 10° SSE
Cosmos 2263 Rocket 2.2 16:49:22 39° SSW 16:51:40 88° ESE 16:57:24 10° NNE
Cosmos 1553 Rocket 4.2 16:45:35 10° S 16:52:08 78° E 16:58:32 10° NNE
Cosmos 1627 Rocket 4.4 16:48:18 10° N 16:54:34 84° W 17:01:01 10° S
Helios 1A Rocket 3.6 16:51:10 10° NNE 16:55:12 55° ESE 16:57:51 21° S
Cosmos 2298 Rocket 4.4 16:53:44 23° SSW 16:57:07 64° ESE 17:02:25 10° NE
Envisat 2.9 16:53:02 10° N 16:58:10 76° WNW 17:01:07 26° SSW
NOAA 12 4.0 16:55:10 10° NNE 17:00:28 90° ESE 17:05:26 12° SSW
Cosmos 1461 3.9 17:03:00 30° N 17:03:00 30° N 17:05:19 10° NNE
In-Cosmos 22 4.2 16:59:16 10° N 17:04:46 78° E 17:10:13 10° SSE
S3M 4.2 16:59:13 10° S 17:05:26 72° ESE 17:11:35 10° NNE
Cosmos 2285 Rocket 4.0 17:02:17 17° SSW 17:07:32 88° ESE 17:14:01 10° NNE
Meteor 2-10 4.1 17:06:37 45° WSW 17:07:36 51° W 17:12:34 10° N
USA 267 3.6 17:01:48 10° ESE 17:08:24 66° NE 17:14:37 12° NW
ATLAS 5 CENTAUR R/B 4.4 17:03:36 10° N 17:09:50 33° ENE 17:15:39 10° ESE
Cosmos 1437 4.0 17:07:29 10° NNE 17:10:22 40° E 17:13:18 10° SSE
Cosmos 2208 Rocket 4.3 17:06:20 10° NNW 17:11:29 67° ENE 17:16:43 10° SSE
Cosmos 1814 Rocket 4.4 17:08:32 10° N 17:13:48 66° ENE 17:19:11 10° SSE
Okean O Rocket 2.3 17:11:19 10° NNW 17:14:45 37° NW 17:14:45 37° NW
H-2A R/B 4.3 17:12:54 10° ENE 17:16:36 21° ESE 17:20:23 10° S
Cosmos 1980 Rocket 2.1 17:14:37 16° NW 17:19:12 69° WSW 17:24:53 10° SSE
Cosmos 1763 Rocket 3.5 17:15:53 21° NW 17:19:25 59° WSW 17:24:40 10° SSE
Cosmos 2084 4.3 17:18:23 27° SSW 17:20:15 43° SE 17:24:22 10° ENE
CORIOLIS 4.1 17:15:19 10° N 17:20:43 63° WNW 17:26:11 10° SSW
CZ-4C R/B 3.5 17:20:12 26° SW 17:22:32 31° SSW 17:27:58 10° SE
Cosmos 2369 4.0 17:20:46 33° W 17:22:44 45° SW 17:28:15 10° SSE
ARGOS Delta rocket 3.7 17:18:20 10° N 17:23:18 79° WNW 17:28:04 10° SSW
Cosmos 1726 Rocket 4.0 17:20:13 10° S 17:24:37 64° ESE 17:28:57 10° NNE
Cosmos 1844 Rocket 3.6 17:23:06 12° SSW 17:28:19 47° SE 17:33:49 10° NE
Feng Yun 1-1 Rocket 4.2 17:27:48 10° N 17:33:19 67° WNW 17:39:02 10° SSW
Cosmos 468 Rocket 4.3 17:30:50 25° WNW 17:33:29 42° WSW 17:38:30 10° SSE
PSLV R/B 4.1 17:30:02 10° SSE 17:34:15 75° ENE 17:38:27 10° N
NOSS 3-1 (A) 4.3 17:34:58 25° W 17:35:58 26° WNW 17:40:29 10° NNW
Aureole 3 Rocket 3.6 17:36:45 30° WNW 17:36:45 30° WNW 17:40:16 10° NNW
KORONAS-FOTON 3.7 17:33:14 10° NNW 17:37:06 81° W 17:41:02 10° S
Cosmos 2026 Rocket 4.2 17:32:52 10° NW 17:38:47 46° WSW 17:44:52 10° S
Cosmos 1939 Rocket 3.1 17:37:14 10° NNE 17:41:21 76° ESE 17:45:33 10° S
Cosmos 1689 Rocket 2.2 17:38:44 10° S 17:41:45 50° WSW 17:44:43 10° NNW
Cosmos 1570 Rocket 4.0 17:36:49 10° NW 17:42:11 64° WSW 17:47:37 10° SSE
Cosmos 540 Rocket 3.4 17:37:06 10° NNW 17:42:18 70° WSW 17:47:34 10° SSE
Cosmos 2278 4.0 17:38:08 16° WNW 17:42:26 45° SW 17:47:56 10° SSE
SMAP 3.8 17:39:17 10° NNW 17:43:30 32° W 17:45:30 23° SW
SL-16 R/B 2.6 17:38:21 10° NNW 17:43:59 67° ENE 17:49:42 10° SE
CZ-4 R/B 1.7 17:40:22 10° NNE 17:44:35 72° ESE 17:48:54 10° S
USA 234 3.5 17:39:08 10° NE 17:45:35 55° NW 17:50:12 20° WSW
FengYun 1-2 T 4.3 17:40:10 10° N 17:45:42 61° WNW 17:51:23 10° SSW
Cosmos 1697 Rocket 3.5 17:44:40 23° W 17:46:59 31° SW 17:52:03 10° SSE
Cosmos 1626 2.9 17:43:24 10° N 17:47:06 56° E 17:50:51 10° SSE
Cosmos 2228 3.0 17:43:50 10° SSW 17:48:10 62° W 17:52:23 10° N
Cosmos 841 Rocket 3.5 17:43:09 10° NW 17:48:25 61° WSW 17:53:45 10° SSE
Cosmos 372 Rocket 4.3 17:45:25 20° SW 17:48:35 42° WNW 17:53:23 10° N
Cosmos 2278 Rocket 4.1 17:44:37 10° SSW 17:49:07 23° SE 17:53:37 10° E
Cosmos 1953 3.7 17:50:07 20° WNW 17:50:07 20° WNW 17:52:20 10° NW
Okean-O 2.6 17:45:45 10° NNE 17:50:14 79° WNW 17:54:48 10° SSW
CZ-4B R/B 4.3 17:47:32 10° NW 17:52:03 25° W 17:54:39 18° SW
SL-14 R/B 3.8 17:49:26 10° N 17:53:20 62° E 17:57:16 10° SSE
Lacrosse 5 rocket 2.1 17:51:51 24° SW 17:53:37 37° S 17:57:32 10° ESE
Orbus 7S? 4.5 17:50:27 10° NW 17:53:45 56° NE 18:00:40 10° ESE
Cosmos 1908 3.8 17:52:24 19° SW 17:54:41 36° W 17:58:14 10° NNW
Cosmos 2150 Rocket 4.2 17:51:02 13° SW 17:55:43 53° WNW 18:00:54 10° N
CZ-2D R/B 3.3 17:52:22 10° NNE 17:56:19 90° E 18:00:20 10° SSW
Cosmos 1125 Rocket 3.5 17:51:01 10° SSW 17:56:21 76° WNW 18:01:36 10° NNE
ATLAS 2AS CENTAUR R/B 3.6 17:52:05 13° SW 17:57:13 37° SSE 18:03:28 10° E
YAOGAN 6 4.0 17:54:49 10° NW 17:57:05 20° WNW 17:57:05 20° WNW
Cosmos 2098 Rocket 4.2 17:52:25 10° N 17:58:16 83° E 18:05:25 10° S
Meteor 2-19 Rocket 4.4 17:52:39 10° NNW 17:58:52 76° WSW 18:05:10 10° S
Meteor 2-15 4.5 17:52:55 10° SSW 17:59:05 65° W 18:05:12 10° N
Cosmos 1300 2.7 17:56:02 10° S 17:59:58 89° E 18:03:50 10° N
Cosmos 1025 Rocket 4.2 18:00:15 20° W 18:01:13 21° WSW 18:04:36 10° SSW
COSMO-SKYMED 1 2.5 18:02:39 10° S 18:07:06 75° WSW 18:11:29 10° NNW
SL-24 R/B 4.1 18:02:54 10° NNE 18:07:16 86° WNW 18:11:57 10° SSW
H-2A R/B 4.2 18:05:45 10° SSW 18:06:15 11° SSW 18:06:15 11° SSW
Meteor 1-24 Rocket 3.7 18:03:26 10° N 18:08:49 84° E 18:14:14 10° SSE
ASTEX 1 3.8 18:04:14 10° NNW 18:08:52 40° W 18:13:36 10° SSW
ADEOS Rocket 2.8 18:03:49 10° S 18:09:19 60° WSW 18:14:49 10° NNW
Cosmos 1818 4.0 18:05:12 10° NNW 18:10:33 66° NE 18:15:57 10° SE
Cosmos 1892 Rocket 3.5 18:06:51 10° NNW 18:11:21 80° W 18:15:53 10° S
Cosmos 1455 4.2 18:10:04 10° S 18:13:28 29° ESE 18:16:49 10° NE
Cosmos 1655 Rocket 4.1 18:09:21 10° NNW 18:15:28 54° WSW 18:21:40 10° S
ATLAS CENTAUR R/B 1.8 18:11:23 12° SW 18:15:49 85° SE 18:20:42 10° NE
Cosmos 1356 Rocket 3.7 18:16:21 10° SSW 18:20:23 48° W 18:24:26 10° N
YAOGAN 1 2.6 18:16:33 10° N 18:20:53 63° WNW 18:25:18 10° SSW
Cosmos 2266 Rocket 4.0 18:16:06 10° NNW 18:22:21 62° WSW 18:28:33 10° S
Cosmos 2322 Rocket 2.2 18:18:19 10° NNW 18:24:04 80° WSW 18:29:53 10° SSE
Meteor 2-5 Rocket 3.7 18:18:36 10° NNW 18:24:08 60° WSW 18:29:43 10° S
Cosmos 1674 3.8 18:23:30 10° WNW 18:26:37 24° WSW 18:29:47 10° SSW
Cosmos 2058 Rocket 3.3 18:22:46 10° SSW 18:27:06 50° W 18:31:25 10° NNW
USA 186 3.3 18:25:31 10° NE 18:27:51 29° ESE 18:30:22 10° S
Cosmos 2292 Rocket 4.4 18:24:26 10° NNW 18:30:36 47° WSW 18:35:19 10° S
Helios 1A Rocket 4.4 18:27:46 10° NW 18:30:42 19° W 18:33:39 10° SW
Cosmos 2369 Rocket 4.4 18:29:54 10° S 18:32:13 12° SSE 18:34:31 10° SE
Cosmos 2315 Rocket 4.2 18:28:22 10° SSW 18:34:31 54° W 18:40:33 10° NNW
Cosmos 2263 Rocket 3.6 18:31:05 10° WSW 18:34:51 19° W 18:38:40 10° NW
Meteor 2-1 Rocket 4.3 18:33:06 10° SSW 18:38:48 86° ESE 18:44:22 10° NNE
ARGOS 3.5 18:34:21 10° NNE 18:39:43 72° ESE 18:45:11 10° SSW
USA 116 3.1 18:36:45 10° S 18:39:56 71° WSW 18:43:12 10° NNW
Cosmos 1437 4.4 18:41:49 10° W 18:43:31 14° WSW 18:45:13 10° SSW
Cosmos 2219 Rocket 4.0 18:41:23 10° N 18:46:34 37° ENE 18:51:47 10° SE
SL-08 RB Rocket 4.3 18:45:24 10° NNE 18:50:02 63° ESE 18:54:42 10° S
FREGAT/IRIS 3.2 18:48:35 10° NNE 18:51:14 51° ESE 18:53:57 10° S
USA 267 3.4 18:44:54 10° ESE 18:51:28 66° SSW 18:58:00 10° W
ATLAS 5 CENTAUR R/B 2.6 18:47:12 10° NW 18:54:21 78° SW 19:00:45 10° SE
Cosmos 1943 Rocket 4.3 18:51:12 10° S 18:54:26 15° SSE 18:57:38 10° ESE
Cosmos 2237 4.2 18:48:55 10° NNW 18:54:39 81° WSW 19:00:26 10° SSE
Cosmos 1844 3.9 18:49:19 10° SW 18:54:54 60° WNW 19:00:29 10° NNE
SKYMED 2 4.5 18:51:08 10° S 18:54:56 29° WSW 18:58:43 10° WNW
Cosmos 2360 Rocket 2.2 18:49:24 10° NNW 18:55:06 84° WSW 19:00:50 10° SSE
H-2A R/B 2.0 18:50:33 10° N 18:55:31 72° WNW 19:00:39 10° SSW
Cosmos-2242 4.0 18:52:16 10° S 18:56:33 50° ESE 19:00:45 10° NNE
